K7TUS-6 Weather Reports


Display with metric or nautical units.
time (UTC)temp
F
wind
direction
speed
MPH
gust
MPH
rain 1hr
in
rain 24hr
in
rain mn
in
humidity
%
barometer
mb
20260508074507 48 308 13.0 13.0 0.00 0.00 0.00 1 984.6
20260508074006 49 323 15.0 15.0 0.00 0.00 0.00 1 984.6
20260508073506 48 324 16.0 16.0 0.00 0.00 0.00 1 984.6
20260508073006 49 320 14.0 15.0 0.00 0.00 0.00 1 985.1
20260508072005 48 320 12.0 16.0 0.00 0.00 0.00 1 984.5
20260508071504 49 316 11.0 14.0 0.00 0.00 0.00 1 984.5
20260508071010 48 313 12.0 15.0 0.00 0.00 0.00 100 985.4
20260508070509 49 309 11.0 13.0 0.00 0.00 0.00 1 984.0
20260508070008 49 297 10.0 15.0 0.00 0.00 0.00 1 985.4
20260508065508 49 294 11.0 14.0 0.00 0.00 0.00 1 985.0
20260508065007 49 306 11.0 13.0 0.00 0.00 0.00 2 984.4
20260508064512 48 298 10.0 15.0 0.00 0.00 0.00 2 985.6
20260508064006 48 302 14.0 18.0 0.00 0.00 0.00 2 985.2
20260508063505 48 307 14.0 17.0 0.00 0.00 0.00 2 985.4
20260508063005 48 296 11.0 13.0 0.00 0.00 0.00 3 984.6
20260508062504 48 294 11.0 14.0 0.00 0.00 0.00 3 985.4
20260508062004 48 302 11.0 14.0 0.00 0.00 0.00 4 984.3
20260508061503 48 322 11.0 14.0 0.00 0.00 0.00 4 985.6
20260508061009 48 307 12.0 15.0 0.00 0.00 0.00 4 985.2
20260508060508 49 322 8.0 11.0 0.00 0.00 0.00 4 985.8
20260508060008 49 292 7.0 12.0 0.00 0.00 0.00 5 986.2
20260508055007 49 291 10.0 14.0 0.00 0.00 0.00 2 985.2
20260508054507 50 324 6.0 8.0 0.00 0.00 0.00 100 985.1
20260508054006 49 285 9.0 12.0 0.00 0.00 0.00 1 986.0
20260508053505 49 297 9.0 12.0 0.00 0.00 0.00 100 985.8
20260508053005 49 287 8.0 11.0 0.00 0.00 0.00 1 985.2
20260508052504 50 283 7.0 11.0 0.00 0.00 0.00 100 985.9
20260508052004 49 291 8.0 12.0 0.00 0.00 0.00 1 985.4
20260508051509 49 264 7.0 9.0 0.00 0.00 0.00 100 985.1
20260508051008 49 297 6.0 8.0 0.00 0.00 0.00 1 985.4
20260508050508 49 293 11.0 14.0 0.00 0.00 0.00 2 986.3
20260508050007 49 289 11.0 14.0 0.00 0.00 0.00 2 985.6
20260508045507 49 266 9.0 12.0 0.00 0.00 0.00 2 985.9
20260508045006 49 247 6.0 12.0 0.00 0.00 0.00 1 985.8
20260508044506 49 293 7.0 11.0 0.00 0.00 0.00 1 985.6
20260508044005 49 285 7.0 10.0 0.00 0.00 0.00 1 984.9
20260508043505 49 322 7.0 7.0 0.00 0.00 0.00 1 986.2
20260508043004 49 291 6.0 12.0 0.00 0.00 0.00 1 986.4
20260508042504 49 310 6.0 6.0 0.00 0.00 0.00 1 985.7
20260508042003 49 310 6.0 6.0 0.00 0.00 0.00 1 985.7
20260508041502 50 320 6.0 6.0 0.00 0.00 0.00 1 986.5
20260508041008 50 320 6.0 6.0 0.00 0.00 0.00 1 986.5
20260508040507 49 290 10.0 10.0 0.00 0.00 0.00 100 985.9
20260508040007 50 297 8.0 8.0 0.00 0.00 0.00 1 985.5
20260508035506 50 304 4.0 4.0 0.00 0.00 0.00 1 985.3
20260508035006 50 304 4.0 4.0 0.00 0.00 0.00 1 985.3
20260508034505 50 325 10.0 10.0 0.00 0.00 0.00 1 984.7
20260508034005 49 296 11.0 11.0 0.00 0.00 0.00 1 985.1
20260508033504 49 296 11.0 11.0 0.00 0.00 0.00 1 985.1
20260508033004 50 296 10.0 10.0 0.00 0.00 0.00 1 985.9
20260508032503 50 298 8.0 13.0 0.00 0.00 0.00 1 985.2
20260508032009 50 305 11.0 13.0 0.00 0.00 0.00 100 985.2
20260508031508 50 282 8.0 13.0 0.00 0.00 0.00 1 985.3
20260508031007 50 293 10.0 17.0 0.00 0.00 0.00 1 985.4
20260508030507 51 251 6.0 9.0 0.00 0.00 0.00 1 985.4
20260508030006 51 285 5.0 9.0 0.00 0.00 0.00 1 985.3
20260508025506 51 303 5.0 6.0 0.00 0.00 0.00 1 983.4
20260508025005 51 228 9.0 16.0 0.00 0.00 0.00 1 984.4
20260508024505 51 315 10.0 15.0 0.00 0.00 0.00 1 983.9
20260508024009 51 312 7.0 10.0 0.00 0.00 0.00 1 984.6
20260508023509 50 298 9.0 14.0 0.00 0.00 0.00 100 984.0
20260508023008 51 312 7.0 10.0 0.00 0.00 0.00 100 984.3
20260508022507 51 321 7.0 10.0 0.00 0.00 0.00 1 984.7
20260508022007 52 288 6.0 11.0 0.00 0.00 0.00 1 983.9
20260508021506 52 283 11.0 15.0 0.00 0.00 0.00 1 983.8
20260508021006 54 16 2.0 4.0 0.00 0.00 0.00 1 983.6
20260508020505 53 299 7.0 9.0 0.00 0.00 0.00 1 984.6
20260508020005 55 292 4.0 6.0 0.00 0.00 0.00 1 984.3
20260508015504 56 189 2.0 4.0 0.00 0.00 0.00 1 984.0
20260508015004 56 272 1.0 2.0 0.00 0.00 0.00 1 984.1
20260508014509 56 183 3.0 4.0 0.00 0.00 0.00 1 984.2
20260508013508 58 227 2.0 4.0 0.00 0.00 0.00 1 984.2
20260508013008 56 345 5.0 7.0 0.00 0.00 0.00 1 984.1
20260508012507 58 306 7.0 13.0 0.00 0.00 0.00 1 983.7
20260508012006 57 311 3.0 5.0 0.00 0.00 0.00 1 983.4
20260508011506 59 337 2.0 5.0 0.00 0.00 0.00 1 983.9
20260508011005 58 94 2.0 4.0 0.00 0.00 0.00 1 983.8
20260508010505 56 320 8.0 13.0 0.00 0.00 0.00 1 983.4
20260508010004 59 286 2.0 3.0 0.00 0.00 0.00 1 984.0
20260508005504 61 4 3.0 5.0 0.00 0.00 0.00 1 983.7
20260508005009 62 298 2.0 6.0 0.00 0.00 0.00 1 983.5
20260508004508 65 354 1.0 2.0 0.00 0.00 0.00 1 984.2
20260508004008 63 97 1.0 2.0 0.00 0.00 0.00 1 983.6
20260508003507 60 3 1.0 2.0 0.00 0.00 0.00 1 983.8
20260508003006 57 350 5.0 5.0 0.00 0.00 0.00 1 984.3
20260508002506 58 302 6.0 9.0 0.00 0.00 0.00 1 984.1
20260508002005 58 316 9.0 13.0 0.00 0.00 0.00 1 983.6
20260508001504 60 101 2.0 4.0 0.00 0.00 0.00 1 983.9
20260508001004 63 330 5.0 7.0 0.00 0.00 0.00 1 983.7
20260508000503 63 325 5.0 7.0 0.00 0.00 0.00 1 983.7
20260508000008 67 39 1.0 2.0 0.00 0.00 0.00 1 983.0
20260507235508 63 313 5.0 7.0 0.00 0.00 0.00 1 984.0
20260507235007 66 337 4.0 5.0 0.00 0.00 0.00 1 983.1
20260507234506 69 331 1.0 4.0 0.00 0.00 0.00 1 983.9
20260507234005 65 316 2.0 4.0 0.00 0.00 0.00 1 984.2
20260507233505 65 67 1.0 1.0 0.00 0.00 0.00 1 984.5
20260507233004 64 193 1.0 2.0 0.00 0.00 0.00 1 983.1
20260507232504 64 12 1.0 1.0 0.00 0.00 0.00 1 984.2
20260507232003 65 84 1.0 2.0 0.00 0.00 0.00 1 983.5
20260507231508 64 104 1.0 2.0 0.00 0.00 0.00 1 983.9
20260507231008 60 103 1.0 2.0 0.00 0.00 0.00 1 983.4
20260507230507 59 322 3.0 5.0 0.00 0.00 0.00 1 983.8
20260507230007 60 325 5.0 7.0 0.00 0.00 0.00 1 983.3
20260507225506 63 304 2.0 4.0 0.00 0.00 0.00 1 984.4
20260507225005 74 279 1.0 1.0 0.00 0.00 0.00 1 983.8
20260507224505 72 195 4.0 4.0 0.00 0.00 0.00 1 983.5
20260507224003 69 174 5.0 5.0 0.00 0.00 0.00 1 984.2
20260507223509 69 194 6.0 6.0 0.00 0.00 0.00 1 983.3
20260507222508 65 252 1.0 3.0 0.00 0.00 0.00 1 984.9
20260507222007 66 323 1.0 2.0 0.00 0.00 0.00 1 984.4
20260507221507 66 91 1.0 1.0 0.00 0.00 0.00 1 983.3
20260507221006 65 141 1.0 2.0 0.00 0.00 0.00 1 983.9
20260507220506 65 112 1.0 3.0 0.00 0.00 0.00 1 984.4
20260507220005 67 73 1.0 3.0 0.00 0.00 0.00 1 983.8
20260507215504 66 75 1.0 1.0 0.00 0.00 0.00 1 984.3
20260507215004 65 121 1.0 1.0 0.00 0.00 0.00 1 984.3
20260507213503 70 93 1.0 2.0 0.00 0.00 0.00 1 984.9
20260507213008 69 146 1.0 2.0 0.00 0.00 0.00 1 985.4
20260507212508 70 50 1.0 3.0 0.00 0.00 0.00 1 984.3
20260507211507 69 95 1.0 2.0 0.00 0.00 0.00 1 984.4
20260507211007 69 112 1.0 2.0 0.00 0.00 0.00 1 984.1
20260507210006 69 143 4.0 6.0 0.00 0.00 0.00 1 984.2
20260507205505 71 108 3.0 5.0 0.00 0.00 0.00 1 984.9
20260507205004 70 157 3.0 4.0 0.00 0.00 0.00 1 985.3
20260507204504 69 119 3.0 5.0 0.00 0.00 0.00 1 985.5
20260507204003 69 129 3.0 5.0 0.00 0.00 0.00 1 985.0
20260507203509 71 116 3.0 5.0 0.00 0.00 0.00 1 985.1
20260507203008 69 60 1.0 2.0 0.00 0.00 0.00 1 984.8
20260507202507 67 338 4.0 6.0 0.00 0.00 0.00 1 985.7
20260507202007 73 149 2.0 3.0 0.00 0.00 0.00 1 985.9
20260507201506 71 103 2.0 4.0 0.00 0.00 0.00 1 985.8
20260507201006 70 122 2.0 3.0 0.00 0.00 0.00 1 984.3
20260507200505 69 21 2.0 6.0 0.00 0.00 0.00 1 984.9
20260507200004 69 182 5.0 7.0 0.00 0.00 0.00 1 985.3
20260507195504 71 117 3.0 5.0 0.00 0.00 0.00 1 985.1
20260507195003 70 117 4.0 6.0 0.00 0.00 0.00 1 984.7
20260507194502 69 150 2.0 4.0 0.00 0.00 0.00 1 986.1
20260507194008 68 171 3.0 4.0 0.00 0.00 0.00 1 985.1
20260507193507 68 95 3.0 6.0 0.00 0.00 0.00 1 984.6
20260507193007 68 139 1.0 2.0 0.00 0.00 0.00 1 984.9
20260507192506 69 113 3.0 6.0 0.00 0.00 0.00 1 985.4
20260507192006 69 115 2.0 3.0 0.00 0.00 0.00 1 984.5
20260507191505 67 58 1.0 4.0 0.00 0.00 0.00 1 985.2
20260507191004 68 123 3.0 6.0 0.00 0.00 0.00 1 985.3
20260507190504 68 158 2.0 5.0 0.00 0.00 0.00 1 985.2
20260507190004 68 92 2.0 3.0 0.00 0.00 0.00 1 985.2
20260507185503 68 40 2.0 4.0 0.00 0.00 0.00 1 984.3
20260507185008 68 134 2.0 6.0 0.00 0.00 0.00 1 984.3
20260507184508 67 124 2.0 2.0 0.00 0.00 0.00 1 984.8
20260507184007 67 94 3.0 5.0 0.00 0.00 0.00 1 985.4
20260507183506 66 138 4.0 6.0 0.00 0.00 0.00 1 984.0
20260507183005 66 100 2.0 4.0 0.00 0.00 0.00 1 986.4
20260507182505 66 121 2.0 4.0 0.00 0.00 0.00 1 985.9
20260507182004 65 141 4.0 6.0 0.00 0.00 0.00 1 984.3
20260507181504 66 118 3.0 5.0 0.00 0.00 0.00 1 985.9
20260507181003 65 133 5.0 10.0 0.00 0.00 0.00 1 986.6
20260507180508 64 134 4.0 7.0 0.00 0.00 0.00 1 985.9
20260507180008 65 118 4.0 7.0 0.00 0.00 0.00 1 986.1
20260507175507 65 144 3.0 7.0 0.00 0.00 0.00 1 985.1
20260507175006 65 100 3.0 5.0 0.00 0.00 0.00 1 986.1
20260507174506 65 118 5.0 8.0 0.00 0.00 0.00 1 985.0
20260507174005 65 126 2.0 5.0 0.00 0.00 0.00 1 986.0
20260507173504 65 73 2.0 4.0 0.00 0.00 0.00 1 986.3
20260507173004 64 121 2.0 3.0 0.00 0.00 0.00 1 985.6
20260507172003 65 125 3.0 6.0 0.00 0.00 0.00 1 986.1
20260507171508 64 126 3.0 5.0 0.00 0.00 0.00 1 985.3
20260507171008 64 116 3.0 6.0 0.00 0.00 0.00 1 984.8
20260507170507 64 44 2.0 5.0 0.00 0.00 0.00 1 985.1
20260507170007 64 128 4.0 6.0 0.00 0.00 0.00 1 985.8
20260507165506 64 123 3.0 7.0 0.00 0.00 0.00 1 985.4
20260507165005 65 117 3.0 5.0 0.00 0.00 0.00 1 985.5
20260507164505 64 137 3.0 5.0 0.00 0.00 0.00 1 985.1
20260507164004 65 126 1.0 2.0 0.00 0.00 0.00 1 986.6
20260507163503 64 116 4.0 7.0 0.00 0.00 0.00 1 986.3
20260507163004 63 124 4.0 6.0 0.00 0.00 0.00 1 986.4
20260507162502 63 129 4.0 6.0 0.00 0.00 0.00 1 986.2
20260507162008 63 96 3.0 6.0 0.00 0.00 0.00 1 985.4
20260507161507 63 117 3.0 5.0 0.00 0.00 0.00 1 985.6
20260507161007 62 101 3.0 6.0 0.00 0.00 0.00 1 985.7
20260507160506 61 135 2.0 4.0 0.00 0.00 0.00 1 985.6
20260507160005 61 152 2.0 3.0 0.00 0.00 0.00 1 984.8
20260507155505 60 144 2.0 3.0 0.00 0.00 0.00 1 985.5
20260507155004 60 117 3.0 5.0 0.00 0.00 0.00 1 985.2
20260507154504 60 143 4.0 6.0 0.00 0.00 0.00 1 986.1
20260507154003 59 135 3.0 7.0 0.00 0.00 0.00 1 985.4
20260507153508 59 133 2.0 4.0 0.00 0.00 0.00 1 984.2
20260507153008 59 142 2.0 4.0 0.00 0.00 0.00 1 983.8
20260507152507 58 114 3.0 4.0 0.00 0.00 0.00 1 985.2
20260507152007 58 120 3.0 4.0 0.00 0.00 0.00 1 984.8
20260507151506 57 144 4.0 7.0 0.00 0.00 0.00 1 984.9
20260507151005 57 162 4.0 5.0 0.00 0.00 0.00 1 985.1
20260507150505 56 152 6.0 8.0 0.00 0.00 0.00 1 984.1
20260507150005 57 146 3.0 6.0 0.00 0.00 0.00 1 984.6
20260507145503 57 165 5.0 7.0 0.00 0.00 0.00 1 984.2
20260507145003 57 146 4.0 5.0 0.00 0.00 0.00 1 983.7
20260507144502 57 154 4.0 5.0 0.00 0.00 0.00 1 984.6
20260507144008 56 146 4.0 6.0 0.00 0.00 0.00 1 985.2
20260507143507 57 151 5.0 5.0 0.00 0.00 0.00 1 984.3
20260507143007 57 154 4.0 6.0 0.00 0.00 0.00 1 984.6
20260507142506 57 150 4.0 6.0 0.00 0.00 0.00 1 985.5
20260507142005 57 145 3.0 5.0 0.00 0.00 0.00 1 984.5
20260507141006 57 146 4.0 5.0 0.00 0.00 0.00 1 985.1
20260507140504 57 147 3.0 5.0 0.00 0.00 0.00 1 985.1
20260507135504 56 143 4.0 6.0 0.00 0.00 0.00 1 984.3
20260507135003 56 145 3.0 5.0 0.00 0.00 0.00 1 984.7
20260507134502 55 151 4.0 6.0 0.00 0.00 0.00 1 984.2
20260507134008 55 140 4.0 6.0 0.00 0.00 0.00 1 985.5
20260507133507 55 143 4.0 5.0 0.00 0.00 0.00 1 984.1
20260507133007 55 149 3.0 6.0 0.00 0.00 0.00 1 983.5
20260507132506 55 141 3.0 4.0 0.00 0.00 0.00 1 983.7
20260507132005 55 154 3.0 3.0 0.00 0.00 0.00 1 984.1
20260507131505 55 140 3.0 5.0 0.00 0.00 0.00 1 985.0
20260507131004 55 132 2.0 4.0 0.00 0.00 0.00 1 983.6
20260507130004 53 161 3.0 5.0 0.00 0.00 0.00 1 983.1
20260507125503 53 152 2.0 2.0 0.00 0.00 0.00 1 984.0
20260507125008 52 105 1.0 2.0 0.00 0.00 0.00 1 983.9
20260507124508 52 93 1.0 2.0 0.00 0.00 0.00 1 983.9
20260507124007 52 149 1.0 2.0 0.00 0.00 0.00 1 984.3
20260507123530 52 142 1.0 2.0 0.00 0.00 0.00 1 984.0
20260507122505 51 159 1.0 2.0 0.00 0.00 0.00 1 983.8
20260507121505 51 90 1.0 2.0 0.00 0.00 0.00 1 984.0
20260507121004 51 15 1.0 1.0 0.00 0.00 0.00 1 984.2
20260507120504 51 139 1.0 2.0 0.00 0.00 0.00 1 984.7
20260507120003 52 137 1.0 2.0 0.00 0.00 0.00 1 983.4
20260507115503 52 125 1.0 2.0 0.00 0.00 0.00 1 983.2
20260507115002 52 118 1.0 2.0 0.00 0.00 0.00 1 983.5
20260507114507 51 128 1.0 1.0 0.00 0.00 0.00 1 984.5
20260507114007 51 162 1.0 1.0 0.00 0.00 0.00 1 984.4
20260507113506 51 100 1.0 2.0 0.00 0.00 0.00 1 985.0
20260507113006 51 144 1.0 1.0 0.00 0.00 0.00 1 984.1
20260507112505 52 148 1.0 1.0 0.00 0.00 0.00 1 984.0
20260507112004 51 138 1.0 1.0 0.00 0.00 0.00 1 984.0
20260507111504 51 104 1.0 1.0 0.00 0.00 0.00 100 983.4
20260507111003 52 76 1.0 1.0 0.00 0.00 0.00 1 983.7
20260507110002 52 146 1.0 2.0 0.00 0.00 0.00 1 983.3
20260507105508 52 159 1.0 2.0 0.00 0.00 0.00 1 983.0
20260507105007 51 146 1.0 1.0 0.00 0.00 0.00 1 983.4
20260507104507 51 136 1.0 1.0 0.00 0.00 0.00 1 983.6
20260507104006 51 120 1.0 1.0 0.00 0.00 0.00 1 983.8
20260507103505 51 91 1.0 1.0 0.00 0.00 0.00 100 983.8
20260507103005 50 139 0.0 1.0 0.00 0.00 0.00 1 984.1
20260507102504 50 350 0.0 1.0 0.00 0.00 0.00 1 984.0
20260507102003 51 45 0.0 1.0 0.00 0.00 0.00 1 983.6
20260507101003 51 40 1.0 1.0 0.00 0.00 0.00 1 984.0
20260507100508 52 322 1.0 1.0 0.00 0.00 0.00 1 984.2
20260507100007 53 97 0.0 1.0 0.00 0.00 0.00 1 985.2
20260507095507 53 156 1.0 1.0 0.00 0.00 0.00 1 984.7
20260507095006 53 155 1.0 1.0 0.00 0.00 0.00 1 984.3
20260507094506 54 162 1.0 1.0 0.00 0.00 0.00 1 984.2
20260507094005 54 155 1.0 1.0 0.00 0.00 0.00 1 984.0
20260507093505 54 133 2.0 2.0 0.00 0.00 0.00 1 983.4
20260507093004 54 150 1.0 1.0 0.00 0.00 0.00 1 984.0
20260507092509 54 144 1.0 1.0 0.00 0.00 0.00 1 983.6
20260507092008 54 140 1.0 1.0 0.00 0.00 0.00 1 984.2
20260507091508 55 143 1.0 2.0 0.00 0.00 0.00 1 984.9
20260507091007 55 147 2.0 3.0 0.00 0.00 0.00 1 984.1
20260507090507 54 153 2.0 2.0 0.00 0.00 0.00 1 984.5
20260507090006 54 147 2.0 2.0 0.00 0.00 0.00 1 985.2
20260507085506 54 157 2.0 2.0 0.00 0.00 0.00 1 985.4
20260507085005 53 151 2.0 3.0 0.00 0.00 0.00 1 985.0
20260507084504 53 158 2.0 3.0 0.00 0.00 0.00 1 985.4
20260507084003 53 154 3.0 4.0 0.00 0.00 0.00 1 985.0
20260507083009 54 154 4.0 4.0 0.00 0.00 0.00 1 985.1
20260507082508 54 155 3.0 4.0 0.00 0.00 0.00 1 986.0
20260507082007 54 162 2.0 3.0 0.00 0.00 0.00 1 985.1
20260507081507 54 154 2.0 3.0 0.00 0.00 0.00 1 985.3
20260507080506 53 165 2.0 3.0 0.00 0.00 0.00 1 985.0
20260507080006 53 154 4.0 4.0 0.00 0.00 0.00 1 985.4
20260507075505 53 160 4.0 4.0 0.00 0.00 0.00 1 986.0
20260507075004 53 155 4.0 4.0 0.00 0.00 0.00 1 985.2